Weather History for Saint Simons Island, GA

Change the Weather History Date:

Tuesday, October 1, 2013

  Actual Average Record
Temperature  
Mean Temperature 71 °F 75 °F  
Max Temperature 79 °F 82 °F 94 °F (1971)
Min Temperature 63 °F 68 °F 47 °F (1967)
Degree Days  
Heating Degree Days 0 0  
Month to date heating degree days 0 0  
Since 1 July heating degree days 0 0  
Cooling Degree Days 6 10  
Month to date cooling degree days 6 10  
Year to date cooling degree days 2363 2381  
Growing Degree Days 21 (Base 50)    
Moisture  
Dew Point 60 °F    
Average Humidity 69    
Maximum Humidity 93    
Minimum Humidity 45    
Precipitation  
Precipitation 0.00 in 0.20 in 0.76 in (1957)
Month to date precipitation 0.00 0.20  
Year to date precipitation 45.83 36.07  
Snow  
Snow 0.00 in - 0.00 in ()
Month to date snowfall 0.0  
Since 1 July snowfall 0.0  
Since 1 September snowfall 0.0  
Snow Depth 0.00 in    
Sea Level Pressure  
Sea Level Pressure 30.09 in    
Wind  
Wind Speed 6 mph (NE)    
Max Wind Speed 16 mph    
Max Gust Speed 21 mph    
Visibility 10 miles    
Events      
T = Trace of Precipitation, MM = Missing Value Source: NWS Daily Summary

Daily Weather History Graph

Daily Weather History Graph

Search for Another Location

Airport:

Trip Planner

Search our weather history database for the weather conditions in past years. The results will help you decide how hot, cold, wet, or windy it might be!

Date:

Astronomy

Oct. 01, 2013 Rise Set
Actual Time 7:19 AM EDT 7:10 PM EDT
Civil Twilight 6:55 AM EDT 7:34 PM EDT
Nautical Twilight 6:27 AM EDT 8:02 PM EDT
Astronomical Twilight 5:58 AM EDT 8:30 PM EDT
Moon 4:03 AM EDT (10/1) 5:03 PM EDT (10/1)
Length of Visible Light 12h 39m
Length of Day
11h 50m
Waning Crescent, 12% of the Moon is Illuminated
Oct 1
Waning Crescent
Oct 4
New
Oct 11
First Quarter
Oct 18
Full
Oct 26
Last Quarter

Hourly Weather History & Observations

Time (EDT) Temp. Dew Point Humidity Pressure Visibility Wind Dir Wind Speed Gust Speed Precip Events Conditions
12:53 AM 64.9 °F 61.0 °F 87% 30.06 in 10.0 mi Calm Calm - N/A   Clear
1:53 AM 66.0 °F 62.1 °F 87% 30.06 in 10.0 mi NNW 4.6 mph - N/A   Clear
2:53 AM 64.9 °F 61.0 °F 87% 30.06 in 10.0 mi Calm Calm - N/A   Scattered Clouds
3:53 AM 64.9 °F 61.0 °F 87% 30.05 in 10.0 mi North 3.5 mph - N/A   Clear
4:53 AM 64.0 °F 61.0 °F 90% 30.05 in 10.0 mi Calm Calm - N/A   Clear
5:53 AM 64.0 °F 61.0 °F 90% 30.06 in 10.0 mi NNW 3.5 mph - N/A   Clear
6:53 AM 63.0 °F 60.1 °F 90% 30.09 in 10.0 mi NNW 4.6 mph - N/A   Clear
7:53 AM 64.0 °F 60.1 °F 87% 30.10 in 10.0 mi North 5.8 mph - N/A   Clear
8:53 AM 68.0 °F 60.1 °F 76% 30.13 in 10.0 mi North 6.9 mph - N/A   Overcast
9:53 AM 72.0 °F 60.1 °F 66% 30.14 in 10.0 mi North 8.1 mph - N/A   Clear
10:53 AM 75.0 °F 59.0 °F 57% 30.14 in 10.0 mi North 9.2 mph - N/A   Clear
11:53 AM 77.0 °F 57.9 °F 52% 30.12 in 10.0 mi Variable 4.6 mph - N/A   Clear
12:53 PM 79.0 °F 55.9 °F 45% 30.12 in 10.0 mi NNE 4.6 mph - N/A   Clear
1:53 PM 77.0 °F 61.0 °F 58% 30.09 in 10.0 mi ENE 12.7 mph - N/A   Clear
2:53 PM 75.9 °F 60.1 °F 58% 30.07 in 10.0 mi East 13.8 mph - N/A   Clear
3:53 PM 75.9 °F 57.9 °F 54% 30.07 in 10.0 mi ENE 13.8 mph 18.4 mph N/A   Clear
4:53 PM 75.9 °F 60.1 °F 58% 30.06 in 10.0 mi East 12.7 mph - N/A   Clear
5:53 PM 75.0 °F 60.1 °F 60% 30.06 in 10.0 mi East 8.1 mph - N/A   Clear
6:53 PM 73.0 °F 60.1 °F 64% 30.07 in 10.0 mi East 6.9 mph - N/A   Clear
7:53 PM 73.0 °F 60.1 °F 64% 30.08 in 10.0 mi East 6.9 mph - N/A   Clear
8:53 PM 72.0 °F 61.0 °F 68% 30.09 in 10.0 mi East 6.9 mph - N/A   Clear
9:53 PM 71.1 °F 61.0 °F 70% 30.11 in 10.0 mi East 4.6 mph - N/A   Clear
10:53 PM 71.1 °F 61.0 °F 70% 30.12 in 10.0 mi East 4.6 mph - N/A   Clear
11:53 PM 69.1 °F 60.1 °F 73% 30.12 in 10.0 mi East 3.5 mph - N/A   Clear